FW9205 Weather Reports


time (UTC)temp
F
wind
direction
speed
knots
gust
knots
rain 1hr
in
rain 24hr
in
rain mn
in
humidity
%
barometer
mb
20260505011405 48 224 13.9 20.0 0.00 0.00 0.00 77 1005.0
20260505010907 48 207 14.8 21.7 0.00 0.00 0.00 77 1004.9
20260505005916 48 258 16.5 23.5 0.00 0.00 0.00 77 1004.7
20260505004854 47 212 14.8 23.5 0.00 0.00 0.00 79 1004.8
20260505003912 47 227 13.9 20.0 0.00 0.00 0.00 77 1004.8
20260505002909 48 225 14.8 20.0 0.00 0.00 0.00 78 1004.6
20260505001414 48 198 15.6 20.0 0.00 0.00 0.00 77 1004.4
20260505000413 49 230 15.6 21.7 0.00 0.00 0.00 75 1004.2
20260504235912 49 246 15.6 20.9 0.00 0.00 0.00 77 1004.2
20260504235042 48 224 16.5 22.6 0.00 0.00 0.00 78 1004.0
20260504234405 47 234 15.6 20.0 0.00 0.00 0.00 79 1003.9
20260504233416 47 237 13.0 20.9 0.00 0.00 0.00 78 1003.9
20260504232908 47 233 16.5 20.9 0.00 0.00 0.00 78 1003.7
20260504231914 47 238 14.8 20.9 0.00 0.00 0.00 78 1003.7
20260504230936 47 261 16.5 21.7 0.00 0.00 0.00 77 1003.4
20260504230404 47 231 16.5 21.7 0.00 0.00 0.00 78 1003.4
20260504225431 45 277 13.0 19.1 0.00 0.00 0.00 80 1003.4
20260504224428 44 207 8.7 14.8 0.00 0.00 0.00 79 1003.4
20260504223407 45 258 13.0 19.1 0.00 0.00 0.00 77 1003.2
20260504222858 46 272 14.8 19.1 0.00 0.00 0.00 76 1003.2
20260504221905 46 263 14.8 23.5 0.00 0.00 0.00 73 1003.4
20260504221403 48 238 17.4 26.9 0.00 0.00 0.00 68 1003.3
20260504220420 47 248 15.6 20.9 0.00 0.00 0.00 68 1002.9
20260504215412 47 248 15.6 19.1 0.00 0.00 0.00 67 1002.7
20260504214414 47 251 13.9 17.4 0.00 0.00 0.00 69 1002.3
20260504213855 47 234 13.9 20.9 0.00 0.00 0.00 68 1002.3
20260504212910 0 0.0 0.0 0.00 0.00 0.00 1002.3
20260504211911 0 0.0 0.0 0.00 0.00 0.00 1002.2
20260504210416 0 0.0 0.0 0.00 0.00 0.00 1002.3
20260504205429 0 0.0 0.0 0.00 0.00 0.00 1002.1
20260504204433 0 0.0 0.0 0.00 0.00 0.00 1001.9
20260504203407 0 0.0 0.0 0.00 0.00 0.00 1001.8
20260504202417 0 0.0 0.0 0.00 0.00 0.00 1001.7
20260504201423 0 0.0 0.0 0.00 0.00 0.00 1001.6
20260504200420 0 0.0 0.0 0.00 0.00 0.00 1001.3
20260504195411 0 0.0 0.0 0.00 0.00 0.00 1001.3
20260504194845 0 0.0 0.0 0.00 0.00 0.00 1001.4
20260504193919 0 0.0 0.0 0.00 0.00 0.00 1001.4
20260504192915 0 0.0 0.0 0.00 0.00 0.00 1001.2
20260504191925 0 0.0 0.0 0.00 0.00 0.00 1001.3
20260504190920 0 0.0 0.0 0.00 0.00 0.00 1001.1
20260504185914 0 0.0 0.0 0.00 0.00 0.00 1001.3
20260504184906 0 0.0 0.0 0.00 0.00 0.00 1001.2
20260504183915 0 0.0 0.0 0.00 0.00 0.00 1001.3
20260504182920 0 0.0 0.0 0.00 0.00 0.00 1001.1
20260504181930 0 0.0 0.0 0.00 0.00 0.00 1001.1
20260504180914 0 0.0 0.0 0.00 0.00 0.00 1001.1
20260504175916 0 0.0 0.0 0.00 0.00 0.00 1000.9
20260504174426 0 0.0 0.0 0.00 0.00 0.00 1000.7
20260504173423 0 0.0 0.0 0.00 0.00 0.00 1000.7
20260504172430 0 0.0 0.0 0.00 0.00 0.00 1000.5
20260504171427 0 0.0 0.0 0.00 0.00 0.00 1000.4
20260504170420 0 0.0 0.0 0.00 0.00 0.00 1000.4
20260504160425 0 0.0 0.0 0.00 0.00 0.00 999.4
20260504150430 0 0.0 0.0 0.00 0.00 0.00 999.2
20260504140424 0 0.0 0.0 0.00 0.00 0.00 998.1
20260504130418 0 0.0 0.0 0.00 0.00 0.00 996.7
20260504110425 38 271 24.3 32.2 0.00 0.00 0.00 93 994.4
20260504100424 38 276 27.8 38.2 0.00 0.00 0.00 93 992.6
20260504081855 36 279 36.5 47.8 0.00 0.00 0.00 93 988.3
20260504080904 36 274 33.9 46.1 0.00 0.00 0.00 94 987.8
20260504080354 36 271 33.0 46.1 0.00 0.00 0.00 94 987.6
20260504070337 36 286 26.9 35.6 0.00 0.00 0.00 95 984.8
20260504045851 37 281 19.1 22.6 0.00 0.00 0.00 95 979.8
20260504045038 37 298 18.2 23.5 0.00 0.00 0.00 95 979.3
20260504044335 37 327 17.4 23.5 0.00 0.00 0.00 95 979.4
20260504043409 37 315 15.6 22.6 0.00 0.00 0.00 95 979.1
20260504042909 37 320 16.5 25.2 0.00 0.00 0.00 95 979.0
20260504042328 37 317 18.2 25.2 0.00 0.00 0.00 95 978.9
20260504041340 37 319 19.1 26.1 0.00 0.00 0.00 95 978.8
20260504040350 37 350 20.9 26.9 0.00 0.00 0.00 95 978.4
20260504035849 37 334 22.6 27.8 0.00 0.00 0.00 95 978.3
20260504034706 37 346 20.9 24.3 0.00 0.00 0.00 95 978.2
20260504033840 38 337 15.6 18.2 0.00 0.00 0.00 95 977.9
20260504032906 38 356 13.0 19.1 0.00 0.00 0.00 94 977.9
20260504032357 38 348 13.9 19.1 0.00 0.00 0.00 95 977.6
20260504031351 38 212 14.8 18.2 0.00 0.00 0.00 95 977.5
20260504030355 38 212 14.8 18.2 0.00 0.00 0.00 95 977.8
20260504025855 38 1 12.2 16.5 0.00 0.00 0.00 94 977.6
20260504025344 38 9 12.2 16.5 0.00 0.00 0.00 94 977.6
20260504024344 38 212 11.3 13.9 0.00 0.00 0.00 95 977.5
20260504023413 38 10 10.4 13.9 0.00 0.00 0.00 94 977.5
20260504022400 38 11 10.4 16.5 0.00 0.00 0.00 94 977.6
20260504021356 38 13 12.2 17.4 0.00 0.00 0.00 94 977.8
20260504020854 38 13 10.4 17.4 0.00 0.00 0.00 94 978.0
20260504020348 38 212 12.2 16.5 0.00 0.00 0.00 94 978.0
20260504015350 39 212 12.2 18.2 0.00 0.00 0.00 94 978.2
20260504014836 39 212 11.3 16.5 0.00 0.00 0.00 94 978.5
20260504013918 39 44 11.3 18.2 0.00 0.00 0.00 94 978.6
20260504012907 39 360 12.2 19.1 0.00 0.00 0.00 94 978.7